Location: Newark
(22.3060°N, 114.2134°E)
Time: 22:59:43
(UTC+00:00)

N. Korean satellite - Visible Passes

Search period start: 20 June 2021 00:00
Search period end: 30 June 2021 00:00
Orbit: 450 x 500 km, 97.2° (Epoch: 20 June)

Date Brightness Start Highest point End Pass type
(mag) Time Alt. Az. Time Alt. Az. Time Alt. Az.
22 Jun 9.0 20:57:52 10° NE 21:00:51 24° E 21:03:50 10° SSE visible
25 Jun 8.3 21:08:49 10° NNE 21:12:12 35° E 21:15:35 10° SSE visible
26 Jun 9.6 20:42:51 10° ENE 20:44:51 14° E 20:46:51 10° SE visible
29 Jun 9.2 20:53:22 10° NE 20:56:10 21° E 20:58:58 10° SSE visible
